|  Orbital Elements
Epoch 2015 May 18.0 TT = JDT 2457160.5
T 2015 May 13.98449 TT                                  MPCW
q   1.5366620            (2000.0)            P               Q
n   0.14744877     Peri.  154.23539     +0.89776883     +0.44046343
a   3.5484767      Node   179.61759     -0.43578631     +0.88880236
e   0.5669516      Incl.   15.28485     -0.06404238     +0.12657936
P   6.68
From 1339 observations 2008 Sept. 10-2016 Jan. 12, mean residual 0".7.
     Nongravitational parameters A1 = -0.27, A2 = -0.2231.
 |